Location: Tabor
(49.4170°N, 14.6670°E)
Time: 09:31:41
(UTC+02:00)

ISS - Pass Details

Date: 24 May 2021
Orbit: 417 x 422 km, 51.6° (Epoch: 13 June)

Event Time Altitude Azimuth Distance (km) Brightness Sun altitude
Rises 22:59:34 0° 288° (WNW) 2,367 0.8 -14.9°
Reaches altitude 10° 23:01:40 10° 288° (WNW) 1,502 -0.3 -15.0°
Maximum altitude 23:05:02 82° 202° (SSW) 428 -3.9 -15.3°
Enters shadow 23:06:34 30° 116° (ESE) 784 -2.8 -15.4°
